Regional Weather Roundup
Issued by NWS

Home | Current Version | Previous Version | Text Only | Print | Product List | Glossary On
Versions: 1 2 3 4 5 6 7 8 9 10 11 12 13 14 15 16 17 18 19 20 21 22 23 24 25 26 27 28 29 30 31 32 33 34 35 36 37 38 39 40 41 42 43 44 45 46 47 48 49 50
000
ASUS44 KMEG 310110
RWRTN
TENNESSEE HOURLY STATE WEATHER ROUNDUP
NATIONAL WEATHER SERVICE MEMPHIS TN
800 PM CDT THU MAR 30 2017

TNZ002-004-019-021-049-052-054-088>092-310200-
WEST TENNESSEE

CITY           SKY/WX    TMP DP  RH WIND       PRES   REMARKS
MEMPHIS INTL   PTCLDY    61  44  53 W14G21    29.69R
NWS MEMPHIS      N/A     62 N/A N/A MISG        N/A
JACKSON        CLOUDY    61  49  64 W18G32    29.66R
DYERSBURG      MOCLDY    58  45  62 W14G20    29.67R
BOLIVAR        CLOUDY    61  50  67 W8        29.66R
PARIS          CLOUDY    57  50  77 W7        29.65R
HUNTINGDON     CLOUDY    59  57  94 CALM      29.66R FOG
SAVANNAH       CLOUDY    70  54  56 S10G17    29.63S
$$

TNZ008-025-027-028-033-062-065-066-310200-
NORTH MIDDLE TENNESSEE

CITY           SKY/WX    TMP DP  RH WIND       PRES   REMARKS
NASHVILLE      MOCLDY    69  59  70 S7        29.64R
PORTLAND       MOCLDY    64  57  77 S8        29.62S
CLARKSVILLE    CLOUDY    63  55  75 W15G24    29.61F
SMYRNA         CLOUDY    66  57  72 S18G36    29.66R
COOKEVILLE     MOCLDY    72  55  56 S13       29.64R
GALLATIN       MOCLDY    66  61  82 VRB5G15   29.64F
CROSSVILLE     CLOUDY    70  52  52 S14G29    29.69F
$$

TNZ061-075-076-078-094-096-097-310200-
SOUTH MIDDLE TENNESSEE

CITY           SKY/WX    TMP DP  RH WIND       PRES   REMARKS
FAYETTEVILLE   CLOUDY    70  52  52 SW18G30   29.70R
TULLAHOMA      CLOUDY    70  46  43 S14       29.69R
WINCHESTER     MOCLDY    72  52  49 S14       29.70R
MCMINNVILLE    PTCLDY    73  55  53 SW14      29.67R
COLUMBIA       PTCLDY    70  55  60 S12       29.64S
SHELBYVILLE    CLOUDY    64  61  88 SW9       29.69R
$$

TNZ017-018-042-046-047-310200-
NORTHEAST TENNESSEE

CITY           SKY/WX    TMP DP  RH WIND       PRES   REMARKS
TRI CITIES     CLOUDY    66  53  63 SE6       29.81S
ELIZABETHTON   CLOUDY    63  54  72 E9G22     29.83F
$$

TNZ012-013-036-069-073-074-310200-
CENTRAL EAST TENNESSEE

CITY           SKY/WX    TMP DP  RH WIND       PRES   REMARKS
KNOXVILLE      CLOUDY    74  52  46 S15       29.70F
OAK RIDGE      MOCLDY    76  47  35 MISG      29.70F
DOWNTOWN KNOXV CLOUDY    75  54  46 S8G15     29.71S
GATLINBURG     CLEAR     73  48  40 S7        29.72S
MORRISTOWN     MOCLDY    72  50  46 S9        29.74S
JACKSBORO      PTCLDY    73  50  43 S8        29.70F
$$

TNZ083-085-099-310200-
SOUTHEAST TENNESSEE

CITY           SKY/WX    TMP DP  RH WIND       PRES   REMARKS
CHATTANOOGA    LGT RAIN  71  55  56 S20G28    29.71S
$$

SKY/WX REPORTED AS FAIR MEANS FEW OR NO CLOUDS BELOW
12 THOUSAND FEET.





USA.gov is the U.S. government's official web portal to all federal, state and local government web resources and services.